N5PA-2 Weather Reports


time (UTC)temp
C
wind
direction
speed
KPH
gust
KPH
rain 1hr
cm
rain 24hr
cm
rain mn
cm
humidity
%
barometer
mb
20260509183505 23 80 0.0 1.6 0.00 1.96 1.96 82 1010.2
20260509182505 23 78 0.0 4.8 0.00 1.98 1.96 82 1010.4
20260509182004 23 80 0.0 4.8 0.00 1.98 1.96 81 1010.4
20260509181505 24 90 0.0 1.6 0.00 1.98 1.96 83 1010.4
20260509181005 24 89 0.0 3.2 0.00 1.98 1.96 82 1010.3
20260509180504 24 90 0.0 3.2 0.00 1.98 1.96 81 1010.2
20260509175505 24 82 1.6 6.4 0.00 1.98 1.96 82 1010.4
20260509175005 23 81 1.6 6.4 0.00 1.98 1.96 82 1010.4
20260509174505 24 84 1.6 6.4 0.00 1.98 1.96 82 1010.4
20260509174005 23 60 1.6 6.4 0.00 1.98 1.96 83 1010.5
20260509173505 23 48 1.6 6.4 0.00 1.98 1.96 82 1010.3
20260509173005 23 311 1.6 3.2 0.00 1.98 1.96 82 1010.5
20260509172505 23 334 1.6 3.2 0.00 1.98 1.96 82 1010.5
20260509172005 23 85 0.0 3.2 0.00 1.98 1.96 83 1010.9
20260509170505 22 36 1.6 4.8 0.00 1.98 1.96 83 1011.1
20260509170005 22 77 1.6 8.0 0.00 1.98 1.96 84 1011.1
20260509165505 22 67 3.2 8.0 0.00 1.98 1.96 83 1011.0
20260509165005 22 46 1.6 4.8 0.00 1.98 1.96 83 1010.9
20260509164005 22 320 1.6 4.8 0.00 2.01 1.96 83 1010.9
20260509163504 22 20 1.6 4.8 0.00 2.01 1.96 83 1011.0
20260509162505 21 60 1.6 4.8 0.00 2.01 1.96 83 1011.2
20260509162004 21 68 1.6 4.8 0.00 2.01 1.96 82 1011.2
20260509161505 21 72 1.6 6.4 0.00 2.01 1.96 82 1011.4
20260509161005 21 62 1.6 6.4 0.00 2.01 1.96 80 1011.5
20260509160504 21 42 1.6 6.4 0.00 2.01 1.96 79 1011.5
20260509155504 20 69 1.6 6.4 0.00 2.01 1.96 76 1011.7
20260509155004 20 55 0.0 4.8 0.00 2.03 1.96 74 1011.7
20260509154504 20 32 0.0 4.8 0.00 2.06 1.96 73 1011.8
20260509153504 20 53 0.0 3.2 0.00 2.11 1.96 73 1011.5
20260509153005 20 21 0.0 1.6 0.00 2.16 1.96 72 1011.5
20260509152504 20 13 0.0 1.6 0.00 2.44 1.96 73 1011.6
20260509152004 20 12 0.0 1.6 0.00 2.97 1.96 73 1011.5
20260509151505 20 40 0.0 3.2 0.00 3.25 1.96 72 1011.4
20260509151005 20 52 1.6 3.2 0.00 3.38 1.96 73 1011.3
20260509150505 20 61 1.6 4.8 0.00 3.43 1.96 73 1011.3
20260509150005 20 45 0.0 4.8 0.00 3.45 1.96 73 1011.3
20260509145504 20 13 0.0 3.2 0.00 3.51 1.96 73 1011.5
20260509145005 20 91 0.0 1.6 0.00 3.53 1.96 73 1011.5
20260509144504 20 0 0.0 0.0 0.00 3.58 1.96 73 1011.6
20260509144004 20 91 0.0 1.6 0.00 3.61 1.96 73 1011.7
20260509143504 19 100 0.0 1.6 0.00 3.63 1.96 73 1011.8
20260509143004 19 103 0.0 1.6 0.00 3.66 1.96 74 1011.5
20260509142504 19 194 0.0 1.6 0.00 3.68 1.96 74 1011.5
20260509142005 19 194 0.0 1.6 0.00 3.71 1.96 74 1011.7
20260509141005 19 0 0.0 0.0 0.00 3.73 1.96 74 1011.7
20260509140005 19 159 0.0 1.6 0.00 3.73 1.96 74 1011.7
20260509135504 19 159 0.0 1.6 0.00 3.73 1.96 74 1011.8
20260509135004 19 0 0.0 0.0 0.00 3.73 1.96 74 1011.6
20260509134504 19 0 0.0 0.0 0.00 3.73 1.96 74 1011.4
20260509133005 18 158 0.0 3.2 0.00 3.73 1.96 74 1010.8
20260509132504 18 22 0.0 1.6 0.00 3.73 1.96 74 1010.7
20260509132004 18 22 0.0 1.6 0.00 3.73 1.96 74 1010.5
20260509131504 18 0 0.0 0.0 0.00 3.73 1.96 74 1010.2
20260509131004 18 293 0.0 4.8 0.00 3.73 1.96 74 1010.4
20260509130504 18 203 0.0 4.8 0.00 3.73 1.96 75 1010.3
20260509130005 18 148 0.0 1.6 0.00 3.73 1.96 75 1010.2
20260509125504 18 0 0.0 0.0 0.00 3.73 1.96 75 1010.1
20260509125004 18 0 0.0 0.0 0.00 3.73 1.96 75 1009.9
20260509124504 18 0 0.0 0.0 0.00 3.73 1.96 75 1010.0
20260509124004 18 0 0.0 0.0 0.00 3.73 1.96 75 1010.1
20260509123004 18 231 0.0 3.2 0.00 3.73 1.96 75 1009.6
20260509122504 18 232 1.6 4.8 0.00 3.73 1.96 75 1009.2
20260509121504 18 107 0.0 3.2 0.03 3.73 1.96 75 1009.2
20260509121004 18 91 1.6 12.9 0.03 3.73 1.96 75 1009.3
20260509120504 18 72 3.2 12.9 0.05 3.73 1.96 75 1009.3
20260509120004 18 69 3.2 11.3 0.05 3.73 1.96 75 1009.2
20260509115504 18 79 1.6 11.3 0.05 3.73 1.96 75 1009.5
20260509114503 18 87 3.2 12.9 0.05 3.73 1.96 75 1009.2
20260509114004 18 83 3.2 12.9 0.08 3.73 1.96 75 1008.9
20260509113504 18 81 1.6 4.8 0.10 3.73 1.96 75 1009.0
20260509113003 18 77 1.6 4.8 0.13 3.73 1.96 75 1009.0
20260509112504 18 70 1.6 6.4 0.48 3.73 1.96 75 1009.0
20260509112004 18 72 1.6 8.0 1.12 3.73 1.96 75 1008.9
20260509111004 18 72 1.6 6.4 1.63 3.71 1.93 75 1009.7
20260509110505 18 69 1.6 6.4 1.60 3.68 1.91 75 1009.6
20260509105505 18 31 1.6 4.8 1.65 3.68 1.91 75 1010.1
20260509105005 18 57 1.6 4.8 1.80 3.68 1.91 75 1009.7
20260509103505 18 20 1.6 4.8 1.85 3.63 1.85 75 1009.7
20260509102505 18 173 1.6 6.4 1.47 3.25 1.47 75 1010.0
20260509102005 18 301 1.6 6.4 0.84 2.62 0.84 76 1010.6
20260509101505 17 343 1.6 4.8 0.38 2.16 0.38 76 1010.2
20260509101005 17 27 0.0 3.2 0.30 2.08 0.30 76 1009.5
20260509100504 17 70 0.0 1.6 0.30 2.08 0.30 76 1008.8
20260509095505 17 78 1.6 6.4 0.25 2.03 0.25 76 1007.6
20260509094505 17 0 0.0 0.0 0.00 1.78 0.00 76 1008.8
20260509094005 17 0 0.0 0.0 0.00 1.78 0.00 76 1008.6
20260509093505 17 0 0.0 0.0 0.00 1.78 0.00 76 1008.3
20260509093005 17 0 0.0 0.0 0.00 1.78 0.00 76 1008.3
20260509092504 17 0 0.0 0.0 0.00 1.78 0.00 76 1008.1
20260509092004 17 0 0.0 0.0 0.00 1.78 0.00 76 1008.1
20260509091505 17 0 0.0 0.0 0.00 1.78 0.00 76 1008.6
20260509091005 17 0 0.0 0.0 0.00 1.78 0.00 76 1008.6
20260509090504 17 0 0.0 0.0 0.00 1.78 0.00 76 1008.6
20260509090004 17 0 0.0 0.0 0.00 1.78 0.00 76 1008.6
20260509085505 17 0 0.0 0.0 0.00 1.78 0.00 76 1008.7
20260509085005 17 0 0.0 0.0 0.00 1.78 0.00 76 1008.7
20260509084504 16 0 0.0 0.0 0.00 1.78 0.00 77 1008.9
20260509084004 16 0 0.0 0.0 0.00 1.78 0.00 77 1008.9
20260509083505 16 0 0.0 0.0 0.00 1.78 0.00 77 1008.8
20260509083005 16 0 0.0 0.0 0.00 1.78 0.00 77 1008.6
20260509082005 16 0 0.0 0.0 0.00 1.78 0.00 77 1008.6
20260509081005 17 0 0.0 0.0 0.00 1.78 0.00 77 1008.7
20260509080505 17 0 0.0 0.0 0.00 1.78 0.00 77 1008.5
20260509080005 17 0 0.0 0.0 0.00 1.78 0.00 77 1008.5
20260509075004 17 0 0.0 0.0 0.00 1.78 0.00 77 1008.9
20260509074004 17 0 0.0 0.0 0.00 1.78 0.00 77 1009.2
20260509073505 17 257 0.0 1.6 0.00 1.78 0.00 77 1009.2
20260509073005 17 257 0.0 3.2 0.00 1.78 0.00 77 1009.1
20260509072504 17 257 1.6 3.2 0.00 1.78 0.00 77 1009.2
20260509071505 17 0 0.0 0.0 0.00 1.78 0.00 77 1009.6
20260509071004 17 0 0.0 0.0 0.00 1.78 0.00 77 1009.7
20260509070504 17 0 0.0 0.0 0.00 1.78 0.00 77 1009.8
20260509070004 17 0 0.0 0.0 0.00 1.78 0.00 77 1009.9
20260509065505 17 0 0.0 0.0 0.00 1.78 0.00 77 1009.9
20260509065005 17 0 0.0 0.0 0.00 1.78 0.00 77 1010.1
20260509064505 17 0 0.0 0.0 0.00 1.78 0.00 77 1010.1
20260509064005 17 0 0.0 0.0 0.00 1.78 0.00 77 1010.3
20260509063505 17 0 0.0 0.0 0.00 1.78 0.00 77 1010.2
20260509063005 17 0 0.0 0.0 0.00 1.78 0.00 77 1010.1
20260509062505 17 0 0.0 0.0 0.00 1.78 0.00 77 1010.1
20260509062005 17 0 0.0 0.0 0.00 1.78 0.00 77 1010.2
20260509061505 17 0 0.0 0.0 0.00 1.78 0.00 77 1010.3
20260509061005 17 0 0.0 0.0 0.00 1.78 0.00 77 1010.5
20260509060505 17 257 0.0 1.6 0.00 1.78 0.00 77 1010.6
20260509060004 17 257 0.0 1.6 0.00 1.78 0.00 77 1010.8
20260509055004 17 0 0.0 0.0 0.00 1.78 0.00 77 1011.0
20260509054504 17 0 0.0 0.0 0.00 1.78 0.00 77 1011.0
20260509054004 17 0 0.0 0.0 0.00 1.78 0.00 77 1010.8
20260509053504 18 0 0.0 0.0 0.00 1.78 0.00 77 1010.8
20260509051505 18 0 0.0 0.0 0.00 1.78 0.00 77 1010.5
20260509051005 18 0 0.0 0.0 0.00 1.78 0.00 77 1010.7
20260509050504 18 0 0.0 0.0 0.00 1.78 0.00 77 1010.4
20260509050006 18 0 0.0 0.0 0.00 1.78 0.00 77 1010.2
20260509045504 18 0 0.0 0.0 0.00 1.78 1.78 77 1010.0
20260509045004 18 257 0.0 1.6 0.00 1.78 1.78 77 1010.0
20260509044505 18 217 0.0 1.6 0.00 1.78 1.78 77 1010.1
20260509043504 18 186 0.0 3.2 0.00 1.78 1.78 76 1010.2
20260509043004 18 228 1.6 6.4 0.00 1.78 1.78 77 1010.4
20260509042504 18 233 1.6 6.4 0.00 1.78 1.78 77 1010.5
20260509041505 18 200 0.0 3.2 0.00 1.78 1.78 77 1010.1
20260509040504 18 0 0.0 0.0 0.00 1.78 1.78 77 1010.2
20260509040004 18 280 0.0 3.2 0.00 1.78 1.78 77 1009.8
20260509035504 18 295 0.0 3.2 0.00 1.78 1.78 77 1009.8
20260509035004 18 76 0.0 3.2 0.00 1.78 1.78 77 1009.8
20260509034504 18 76 0.0 1.6 0.00 1.78 1.78 77 1009.6
20260509034004 18 76 0.0 3.2 0.00 1.78 1.78 77 1009.9
20260509033004 18 79 0.0 1.6 0.00 1.78 1.78 77 1010.1
20260509032504 18 81 0.0 3.2 0.00 1.78 1.78 77 1010.2
20260509032004 18 88 1.6 3.2 0.00 1.78 1.78 77 1010.0
20260509031505 18 93 0.0 3.2 0.00 1.78 1.78 77 1010.0
20260509031004 18 122 0.0 1.6 0.00 1.78 1.78 77 1010.3
20260509030504 18 122 0.0 1.6 0.00 1.78 1.78 77 1010.2
20260509030004 18 122 0.0 1.6 0.00 1.78 1.78 77 1010.4
20260509025504 18 0 0.0 0.0 0.00 1.78 1.78 77 1010.5
20260509025004 18 186 0.0 1.6 0.00 1.78 1.78 77 1010.3
20260509024504 18 186 0.0 1.6 0.00 1.78 1.78 78 1010.2
20260509024004 18 0 0.0 0.0 0.00 1.78 1.78 78 1010.4
20260509023004 18 0 0.0 0.0 0.00 1.78 1.78 77 1010.3
20260509022504 18 0 0.0 0.0 0.00 1.78 1.78 77 1010.4
20260509022004 18 0 0.0 0.0 0.00 1.78 1.78 77 1010.4
20260509021504 18 0 0.0 0.0 0.00 1.78 1.78 77 1010.1
20260509021004 18 0 0.0 0.0 0.00 1.78 1.78 77 1010.2
20260509020503 18 0 0.0 0.0 0.00 1.78 1.78 77 1010.3
20260509020005 18 0 0.0 0.0 0.00 1.78 1.78 77 1010.4
20260509015505 18 0 0.0 0.0 0.00 1.78 1.78 77 1010.4
20260509015005 18 0 0.0 0.0 0.00 1.78 1.78 77 1010.3
20260509014505 18 0 0.0 0.0 0.00 1.78 1.78 77 1010.4
20260509014005 18 0 0.0 0.0 0.00 1.78 1.78 78 1010.4
20260509013006 18 0 0.0 0.0 0.00 1.78 1.78 78 1010.5
20260509012005 18 0 0.0 0.0 0.00 1.78 1.78 78 1010.3
20260509011005 18 186 0.0 1.6 0.00 1.78 1.78 78 1010.1
20260509010505 18 0 0.0 0.0 0.00 1.78 1.78 78 1010.0
20260509010005 18 0 0.0 0.0 0.00 1.78 1.78 78 1010.3
20260509005005 18 0 0.0 0.0 0.00 1.78 1.78 78 1010.1
20260509004505 18 0 0.0 0.0 0.00 1.78 1.78 78 1010.0
20260509004005 18 0 0.0 0.0 0.00 1.78 1.78 78 1010.1
20260509003505 18 0 0.0 0.0 0.00 1.78 1.78 78 1010.1
20260509003004 18 0 0.0 0.0 0.00 1.78 1.78 78 1010.4
20260509001505 18 0 0.0 0.0 0.00 1.78 1.78 78 1010.3
20260509001005 18 0 0.0 0.0 0.00 1.78 1.78 78 1010.1
20260509000505 18 0 0.0 0.0 0.00 1.78 1.78 78 1010.3
20260508235504 18 0 0.0 0.0 0.00 1.78 1.78 78 1010.7
20260508235004 18 0 0.0 0.0 0.00 1.78 1.78 78 1010.6
20260508234505 18 0 0.0 0.0 0.00 1.78 1.78 78 1010.5
20260508234004 18 0 0.0 0.0 0.00 1.78 1.78 78 1010.5
20260508233504 18 186 0.0 1.6 0.00 1.78 1.78 78 1010.7
20260508233005 18 186 0.0 1.6 0.00 1.78 1.78 78 1010.7
20260508232505 18 186 0.0 1.6 0.00 1.78 1.78 78 1010.4
20260508230505 18 101 0.0 1.6 0.00 1.78 1.78 78 1010.9
20260508230005 18 101 0.0 1.6 0.00 1.78 1.78 79 1010.7
20260508225504 18 93 0.0 3.2 0.00 1.78 1.78 79 1010.6
20260508225005 18 231 0.0 3.2 0.00 1.78 1.78 79 1010.6
20260508224504 18 238 0.0 4.8 0.00 1.78 1.78 79 1010.6
20260508224004 18 219 1.6 4.8 0.00 1.78 1.78 79 1010.7
20260508223505 18 209 0.0 3.2 0.00 1.78 1.78 79 1010.6
20260508222505 18 137 0.0 3.2 0.00 1.78 1.78 79 1010.5
20260508222004 18 184 0.0 3.2 0.00 1.78 1.78 79 1010.8
20260508221505 18 216 0.0 4.8 0.00 1.78 1.78 79 1010.9
20260508221005 18 222 0.0 4.8 0.00 1.78 1.78 79 1010.8
20260508220504 18 178 0.0 3.2 0.00 1.78 1.78 79 1010.7
20260508220005 18 91 0.0 3.2 0.00 1.78 1.78 79 1010.8
20260508215504 18 77 0.0 3.2 0.00 1.78 1.78 79 1010.9
20260508215004 18 73 0.0 3.2 0.00 1.78 1.78 78 1011.0
20260508214504 18 75 0.0 3.2 0.00 1.78 1.78 79 1010.9
20260508214004 18 82 0.0 1.6 0.00 1.78 1.78 78 1011.2
20260508213504 18 83 0.0 1.6 0.00 1.78 1.78 78 1011.1
20260508212505 18 73 0.0 1.6 0.00 1.78 1.78 78 1011.0
20260508212005 18 63 0.0 1.6 0.00 1.78 1.78 78 1010.8
20260508211504 17 68 0.0 1.6 0.00 1.78 1.78 78 1010.7
20260508211004 17 81 0.0 3.2 0.00 1.78 1.78 78 1010.8
20260508210505 17 79 0.0 3.2 0.00 1.78 1.78 78 1010.7
20260508210005 17 86 0.0 4.8 0.00 1.78 1.78 78 1010.7
20260508205005 17 68 1.6 4.8 0.00 1.78 1.78 78 1010.9
20260508204504 17 60 0.0 4.8 0.00 1.78 1.78 78 1010.9
20260508204005 17 61 0.0 3.2 0.00 1.78 1.78 78 1011.1
20260508203504 17 71 1.6 4.8 0.00 1.78 1.78 78 1011.1
20260508203005 17 78 1.6 4.8 0.00 1.78 1.78 78 1011.2
20260508202505 17 76 1.6 4.8 0.00 1.78 1.78 78 1011.3
20260508201505 17 69 1.6 4.8 0.00 1.78 1.78 78 1011.4
20260508201005 17 62 1.6 4.8 0.00 1.78 1.78 78 1011.4
20260508200504 17 58 0.0 3.2 0.00 1.78 1.78 78 1011.3
20260508200004 17 77 0.0 3.2 0.00 1.78 1.78 78 1011.5
20260508195505 17 343 0.0 1.6 0.00 1.78 1.78 78 1011.6
20260508195004 17 343 0.0 1.6 0.00 1.78 1.78 78 1011.6
20260508194505 17 5 0.0 1.6 0.00 1.78 1.78 78 1011.4
20260508194005 16 20 0.0 1.6 0.00 1.78 1.78 78 1011.2
20260508193004 16 42 0.0 1.6 0.03 1.78 1.78 79 1011.6
20260508192504 16 42 0.0 1.6 0.03 1.78 1.78 79 1011.6
20260508192005 16 80 0.0 3.2 0.03 1.78 1.78 79 1011.5
20260508191504 16 79 0.0 3.2 0.03 1.78 1.78 79 1011.5
20260508190504 16 0 0.0 0.0 0.03 1.78 1.78 79 1012.3
20260508185505 16 79 0.0 3.2 0.03 1.78 1.78 79 1011.8
20260508185005 16 79 1.6 6.4 0.03 1.78 1.78 79 1011.6
20260508184504 16 79 3.2 9.7 0.03 1.78 1.78 79 1011.5
20260508184004 16 78 3.2 9.7 0.03 1.78 1.78 79 1011.2